Location: Berville
(49.1893°N, 2.0748°E)
Time: 06:38:05
(UTC+00:00)

Meteor 2-2 Rocket - Pass Details

Date: 08 February 2023
Orbit: 853 x 928 km, 81.3° (Epoch: 21 March)

Event Time Altitude Azimuth Distance (km) Brightness Sun altitude
Rises 19:18:21 0° 348° (NNW) 3,442 7.6 -23.0°
Reaches altitude 10° 19:20:47 10° 348° (NNW) 2,506 6.8 -23.4°
Maximum altitude 19:26:29 88° 79° (ENE) 875 4.1 -24.3°
Enters shadow 19:30:31 21° 169° (SSE) 1,884 5.8 -25.0°
